Date String (YYYY-MM-DD hh:mm:ss) UTC,Instrument flags,absolute air pressure of the measurement (hPa),sample flow rate (lpm),inlet stack bypass flow (lpm),air temperature of the measurement (°C),ambient temperature measured by the external sensor (°C),aerosol sample conditioner tube jacket temperature (°C),OPC LED temperature (°C),internal box temperature (°C),relative humidity of the measurement (%),span deviation,mass concentration of particles derived from Lorenz-Mie calculation of OPC scattering (μg/m³),mass concentration of particles derived from Lorenz-Mie calculation of OPC scattering (μg/m³),mass concentration of particles derived from Lorenz-Mie calculation of OPC scattering (μg/m³)
DateTimeUTC,F1_M11,P_M11,Q1_M11,Q2_M11,T1_M11,T2_M11,T3_M11,T4_M11,T5_M11,U1_M11,ZSPAN_M11,X2_M11,X0_M11,X1_M11
2023-06-15 23:00:00,SystemResetWarning,0826.0,5.01,000.00,029.5,027.4,000.0,038.0,031.0,25.3,0000.0,0002.84,0006.41,0001.82
2023-06-15 23:01:00,SystemResetWarning,0826.0,5.00,000.00,029.5,027.6,000.0,038.0,031.0,25.5,0000.0,0002.84,0006.38,0001.83
2023-06-15 23:02:00,SystemResetWarning,0826.0,5.00,000.00,029.5,027.7,000.0,038.0,031.0,25.7,0000.0,0002.85,0006.40,0001.86
2023-06-15 23:03:00,SystemResetWarning,0826.0,5.00,000.00,029.5,027.9,000.0,038.1,031.1,26.2,0000.0,0002.91,0006.80,0001.88
2023-06-15 23:04:00,SystemResetWarning,0826.0,5.00,000.00,029.6,028.0,000.0,038.1,031.1,26.1,0000.0,0002.94,0006.44,0001.89
2023-06-15 23:05:00,SystemResetWarning,0826.0,5.00,000.00,029.6,028.1,000.0,038.1,031.2,26.6,0000.0,0002.91,0005.89,0001.89
2023-06-15 23:06:00,SystemResetWarning,0826.0,5.01,000.00,029.6,028.2,000.0,038.1,031.2,26.6,0000.0,0002.94,0006.02,0001.86
2023-06-15 23:07:00,SystemResetWarning,0826.0,5.00,000.00,029.7,028.2,000.0,038.1,031.2,26.0,0000.0,0002.79,0005.69,0001.84
2023-06-15 23:08:00,SystemResetWarning,0826.0,4.98,000.00,029.7,027.0,000.0,038.1,031.3,25.4,0000.0,0002.78,0005.70,0001.83
2023-06-15 23:09:00,SystemResetWarning,0826.0,5.01,000.00,029.6,025.1,000.0,038.0,031.2,26.1,0000.0,0002.78,0005.64,0001.80
2023-06-15 23:10:00,SystemResetWarning,0826.0,5.00,000.00,029.6,024.8,000.0,038.0,031.1,26.7,0000.0,0002.79,0005.44,0001.79
2023-06-15 23:11:00,SystemResetWarning,0826.0,5.02,000.00,029.5,025.1,000.0,038.0,030.9,27.5,0000.0,0002.98,0006.26,0001.80
2023-06-15 23:12:00,SystemResetWarning,0826.2,4.99,000.00,029.4,025.6,000.0,038.0,030.8,28.6,0000.0,0003.10,0007.28,0001.82
2023-06-15 23:13:00,SystemResetWarning,0826.2,5.00,000.00,029.4,026.0,000.0,038.0,030.8,29.1,0000.0,0003.21,0007.64,0001.87
2023-06-15 23:14:00,SystemResetWarning,0826.2,5.00,000.00,029.4,026.4,000.0,038.0,030.8,28.7,0000.0,0003.31,0007.73,0001.92
2023-06-15 23:15:00,SystemResetWarning,0826.2,5.01,000.00,029.4,026.7,000.0,038.0,030.8,28.3,0000.0,0003.38,0007.93,0001.96
2023-06-15 23:16:00,SystemResetWarning,0826.2,5.01,000.00,029.4,027.0,000.0,038.0,030.9,27.9,0000.0,0003.44,0008.02,0002.01
2023-06-15 23:17:00,SystemResetWarning,0826.2,4.99,000.00,029.4,027.2,000.0,038.0,030.9,28.7,0000.0,0003.46,0008.06,0002.04
2023-06-15 23:18:00,SystemResetWarning,0826.2,4.99,000.00,029.4,027.4,000.0,038.0,031.0,29.0,0000.0,0003.48,0008.04,0002.09
2023-06-15 23:19:00,SystemResetWarning,0826.3,5.00,000.00,029.5,027.6,000.0,038.0,031.0,28.7,0000.0,0003.54,0008.22,0002.13
2023-06-15 23:20:00,SystemResetWarning,0826.2,5.02,000.00,029.5,027.7,000.0,038.0,031.1,28.5,0000.0,0003.55,0008.22,0002.16
2023-06-15 23:21:00,SystemResetWarning,0826.3,4.99,000.00,029.5,027.8,000.0,038.0,031.1,29.0,0000.0,0003.58,0008.30,0002.18
2023-06-15 23:22:00,SystemResetWarning,0826.3,5.00,000.00,029.5,027.9,000.0,038.0,031.1,29.0,0000.0,0003.53,0008.05,0002.20
2023-06-15 23:23:00,SystemResetWarning,0826.4,4.99,000.00,029.5,028.0,000.0,038.0,031.2,29.2,0000.0,0003.49,0007.49,0002.21
2023-06-15 23:24:00,SystemResetWarning,0826.4,5.00,000.00,029.6,028.1,000.0,038.1,031.2,29.0,0000.0,0003.42,0007.14,0002.20
2023-06-15 23:25:00,SystemResetWarning,0826.4,5.00,000.00,029.6,028.1,000.0,038.1,031.2,28.6,0000.0,0003.37,0006.89,0002.19
2023-06-15 23:26:00,SystemResetWarning,0826.4,5.00,000.00,029.6,028.2,000.0,038.1,031.2,28.5,0000.0,0003.34,0006.56,0002.19
2023-06-15 23:27:00,SystemResetWarning,0826.4,5.00,000.00,029.6,028.3,000.0,038.1,031.3,28.4,0000.0,0003.35,0006.75,0002.18
2023-06-15 23:28:00,SystemResetWarning,0826.4,5.00,000.00,029.7,028.3,000.0,038.2,031.3,28.0,0000.0,0003.42,0007.11,0002.20
2023-06-15 23:29:00,SystemResetWarning,0826.4,5.00,000.00,029.7,028.3,000.0,038.2,031.3,28.3,0000.0,0003.40,0007.12,0002.17
2023-06-15 23:30:00,SystemResetWarning,0826.3,5.00,000.00,029.7,028.3,000.0,038.2,031.3,27.8,0000.0,0003.39,0007.74,0002.17
2023-06-15 23:31:00,SystemResetWarning,0826.3,4.99,000.00,029.7,027.9,000.0,038.2,031.3,27.1,0000.0,0003.40,0007.79,0002.19
2023-06-15 23:32:00,SystemResetWarning,0826.2,5.00,000.00,029.7,025.7,000.0,038.1,031.1,27.2,0000.0,0003.42,0007.84,0002.19
2023-06-15 23:33:00,SystemResetWarning,0826.2,5.00,000.00,029.6,024.7,000.0,038.1,031.1,27.2,0000.0,0003.43,0007.83,0002.20
2023-06-15 23:34:00,SystemResetWarning,0826.2,5.00,000.00,029.5,024.8,000.0,038.0,030.8,27.2,0000.0,0003.42,0007.82,0002.19
2023-06-15 23:35:00,SystemResetWarning,0826.2,5.01,000.00,029.4,025.2,000.0,038.0,030.8,27.1,0000.0,0003.41,0007.76,0002.17
2023-06-15 23:36:00,SystemResetWarning,0826.2,5.01,000.00,029.4,025.6,000.0,038.0,030.7,27.1,0000.0,0003.39,0007.72,0002.16
2023-06-15 23:37:00,SystemResetWarning,0826.2,4.99,000.00,029.4,026.1,000.0,038.0,030.7,27.1,0000.0,0003.36,0008.09,0002.15
2023-06-15 23:38:00,SystemResetWarning,0826.2,4.99,000.00,029.4,026.5,000.0,038.0,030.8,27.4,0000.0,0003.33,0008.25,0002.13
2023-06-15 23:39:00,SystemResetWarning,0826.2,5.01,000.00,029.4,026.8,000.0,038.0,030.9,27.3,0000.0,0003.25,0008.03,0002.11
2023-06-15 23:40:00,SystemResetWarning,0826.2,5.00,000.00,029.4,027.1,000.0,038.0,030.9,26.5,0000.0,0003.25,0008.12,0002.12
2023-06-15 23:41:00,SystemResetWarning,0826.2,5.01,000.00,029.4,027.3,000.0,038.0,031.0,27.1,0000.0,0003.24,0007.62,0002.12
2023-06-15 23:42:00,SystemResetWarning,0826.2,4.98,000.00,029.4,027.5,000.0,038.0,031.0,28.0,0000.0,0003.25,0007.57,0002.12
2023-06-15 23:43:00,SystemResetWarning,0826.2,5.00,000.00,029.5,027.7,000.0,038.0,031.0,27.6,0000.0,0003.22,0007.56,0002.11
2023-06-15 23:44:00,SystemResetWarning,0826.1,5.01,000.00,029.5,027.8,000.0,038.0,031.1,27.4,0000.0,0003.19,0007.46,0002.10
2023-06-15 23:45:00,SystemResetWarning,0826.0,5.00,000.00,029.5,027.9,000.0,038.0,031.1,27.0,0000.0,0003.18,0007.69,0002.09
2023-06-15 23:46:00,SystemResetWarning,0826.0,5.00,000.00,029.6,028.0,000.0,038.1,031.2,27.2,0000.0,0003.18,0008.49,0002.09
2023-06-15 23:47:00,SystemResetWarning,0826.0,5.00,000.00,029.6,028.1,000.0,038.1,031.2,27.1,0000.0,0003.17,0008.61,0002.08
2023-06-15 23:48:00,SystemResetWarning,0826.0,5.00,000.00,029.6,028.2,000.0,038.1,031.3,26.7,0000.0,0003.18,0008.23,0002.07
2023-06-15 23:49:00,SystemResetWarning,0825.9,5.00,000.00,029.7,028.2,000.0,038.1,031.3,26.4,0000.0,0003.13,0007.90,0002.04
2023-06-15 23:50:00,SystemResetWarning,0825.9,5.00,000.00,029.7,028.3,000.0,038.1,031.3,26.9,0000.0,0003.12,0007.89,0002.02
2023-06-15 23:51:00,SystemResetWarning,0825.9,5.00,000.00,029.7,028.3,000.0,038.1,031.3,26.6,0000.0,0003.11,0007.82,0002.01
2023-06-15 23:52:00,SystemResetWarning,0825.9,4.99,000.00,029.7,028.4,000.0,038.2,031.4,26.9,0000.0,0003.11,0007.86,0001.98
2023-06-15 23:53:00,SystemResetWarning,0825.9,5.00,000.00,029.8,028.4,000.0,038.2,031.4,27.6,0000.0,0003.10,0007.87,0001.94
2023-06-15 23:54:00,SystemResetWarning,0825.9,4.99,000.00,029.8,026.8,000.0,038.2,031.3,27.4,0000.0,0003.06,0007.74,0001.92
2023-06-15 23:55:00,SystemResetWarning,0825.9,5.00,000.00,029.7,025.1,000.0,038.1,031.2,27.7,0000.0,0003.06,0007.82,0001.92
2023-06-15 23:56:00,SystemResetWarning,0825.8,5.00,000.00,029.7,024.9,000.0,038.1,031.0,27.9,0000.0,0003.04,0007.65,0001.92
2023-06-15 23:57:00,SystemResetWarning,0825.9,5.01,000.00,029.5,025.2,000.0,038.1,030.8,28.7,0000.0,0003.05,0006.62,0001.92
2023-06-15 23:58:00,SystemResetWarning,0825.8,5.00,000.00,029.5,025.7,000.0,038.1,030.8,28.9,0000.0,0003.10,0006.38,0001.93
2023-06-15 23:59:00,SystemResetWarning,0825.9,4.99,000.00,029.5,026.1,000.0,038.1,030.8,29.4,0000.0,0003.11,0006.44,0001.94
